DIWATA-2B

Last updated on Wed Jul 02 2025 00:03:06 GMT+0000 (Coordinated Universal Time)

1 43678U 18084H 25182.55931715 .00001687 00000+0 14673-3 0 9998 2 43678 98.1032 359.5226 0008208 205.3534 154.7286 14.98402200363673
UTC large
Height (km)
Speed (km/s)
/
Latitude / Longitude
Inclination (degrees)
Orbital Period (minutes)
Azimuth
Elevation
Range (km)
Doppler Factor

Next 0 passes for location: London (51.5072 / 0.1276)

Sorry there are no passes over London.